Regional Weather Roundup
Issued by NWS

Home | Current Version | Previous Version | Text Only | Print | Product List | Glossary On
Versions: 1 2 3 4 5 6 7 8 9 10 11 12 13 14 15 16 17 18 19 20 21 22 23 24 25 26 27 28 29 30 31 32 33 34 35 36 37 38 39 40 41 42 43 44 45 46 47 48 49 50
000
ASUS46 KSEW 191810
RWRWA

WASHINGTON REGIONAL WEATHER ROUNDUP
NATIONAL WEATHER SERVICE SEATTLE WA
1100 AM PDT SAT AUG 19 2017

NOTE:"FAIR" INDICATES FEW OR NO CLOUDS BELOW 12,000 FEET WITH NO
SIGNIFICANT WEATHER AND/OR OBSTRUCTIONS TO VISIBILITY.

WAZ507-509-555>559-191900-
SEATTLE, TACOMA, EVERETT, AND VICINITY

CITY           SKY/WX    TMP DP  RH WIND       PRES   REMARKS
EVERETT        SUNNY     62  52  69 W7        30.23S
6HR MIN TEMP:  54; 6HR MAX TEMP:  63;

BOEING FIELD   MOSUNNY   67  55  65 VRB5      30.21S
6HR MIN TEMP:  58; 6HR MAX TEMP:  67;

RENTON         SUNNY     66  53  63 NW7       30.21S
6HR MIN TEMP:  59; 6HR MAX TEMP:  66;

SEATAC AIRPORT MOSUNNY   68  51  54 NE3       30.22S
6HR MIN TEMP:  58; 6HR MAX TEMP:  68;

JBLM-MCCHORD   MOSUNNY   67  56  66 CALM      30.21S
6HR MIN TEMP:  60; 6HR MAX TEMP:  67;

PUYALLUP       FAIR      70  52  52 VRB3      30.21S
BREMERTON      MOSUNNY   67  52  58 CALM      30.22S
6HR MIN TEMP:  56; 6HR MAX TEMP:  68;

JBLM-FT LEWIS  PTSUNNY   66  57  71 SW3       30.21S
6HR MIN TEMP:  59; 6HR MAX TEMP:  66;

TACOMA NARROWS MOSUNNY   63  52  67 SE6       30.22S
6HR MIN TEMP:  57; 6HR MAX TEMP:  65;

$$

WAZ001-503-506-510-514-515-191900-
NORTH INTERIOR

CITY           SKY/WX    TMP DP  RH WIND       PRES   REMARKS
BELLINGHAM     PTSUNNY   63  54  72 VRB5      30.21S
6HR MIN TEMP:  57; 6HR MAX TEMP:  64;

FRIDAY HARBOR  SUNNY     65  53  65 SE6       30.22S
6HR MIN TEMP:  51; 6HR MAX TEMP:  66;

EASTSOUND      SUNNY     64  50  59 CALM      30.22R
PORT ANGELES   SUNNY     61  53  75 N9        30.23R
6HR MIN TEMP:  50; 6HR MAX TEMP:  62;

EDIZ HOOK      FAIR      59  52  76 W8        30.23R
6HR MIN TEMP:  53; 6HR MAX TEMP:  60;

PORT TOWNSEND  FAIR      66  52  59 VRB3      30.22S
NAS WHIDBEY    MOSUNNY   63  50  62 W10       30.26R
6HR MIN TEMP:  56; 6HR MAX TEMP:  63;

ARLINGTON      SUNNY     66  52  60 CALM      30.22S
6HR MIN TEMP:  49; 6HR MAX TEMP:  66;

BURLINGTON     PTSUNNY   66  54  63 VRB5      30.21F
$$

WAZ020-022-039-040-504-511-512-191900-
SOUTHWEST INTERIOR

CITY           SKY/WX    TMP DP  RH WIND       PRES   REMARKS
SHELTON        CLOUDY    64  55  72 CALM      30.20S
6HR MIN TEMP:  56; 6HR MAX TEMP:  64;

OLYMPIA        PTSUNNY   64  54  69 CALM      30.22S
6HR MIN TEMP:  56; 6HR MAX TEMP:  64;

CHEHALIS       PTSUNNY   66  54  63 CALM      30.23S
KELSO          CLOUDY    63  51  65 CALM      30.23F
6HR MIN TEMP:  56; 6HR MAX TEMP:  63;

VANCOUVER      PTSUNNY   67  52  58 NW3       30.20F
6HR MIN TEMP:  59; 6HR MAX TEMP:  67;

SCAPPOOSE, OR  MOSUNNY   68  51  54 N5        30.20S
6HR MIN TEMP:  55; 6HR MAX TEMP:  68;

PORTLAND, OR   PTSUNNY   66  51  58 NW8       30.21S
6HR MIN TEMP:  59; 6HR MAX TEMP:  66;

$$

WAZ021-516-517-191900-
WASHINGTON COAST

CITY           SKY/WX    TMP DP  RH WIND       PRES   REMARKS
FORKS          MOSUNNY   63  53  70 W6        30.23S
6HR MIN TEMP:  54; 6HR MAX TEMP:  64;

HOQUIAM        CLOUDY    65  53  65 W7        30.23S
6HR MIN TEMP:  54; 6HR MAX TEMP:  66;

ASTORIA, OR    SUNNY     64  53  67 NW10      30.23S
6HR MIN TEMP:  57; 6HR MAX TEMP:  65;

$$

WAZ019-023-024-040-567>569-191900-
CASCADE MOUNTAINS AND COLUMBIA GORGE

CITY           SKY/WX    TMP DP  RH WIND       PRES   REMARKS
STAMPEDE PASS  MOSUNNY   56  46  69 VRB6      30.23S
6HR MIN TEMP:  45; 6HR MAX TEMP:  56;

TROUTDALE, OR  SUNNY     68  51  54 VRB5      30.20F
6HR MIN TEMP:  60; 6HR MAX TEMP:  68;

HOOD RIVER, OR CLEAR     70  52  52 NW9G16    30.13F
THE DALLES, OR SUNNY     75  53  46 NW18      30.10F
6HR MIN TEMP:  64; 6HR MAX TEMP:  75;

$$

WAZ026-027-041>044-520-521-191900-
EAST SLOPES

CITY           SKY/WX    TMP DP  RH WIND       PRES   REMARKS
OMAK           MOSUNNY   77  40  26 N13       30.09R
6HR MIN TEMP:  54; 6HR MAX TEMP:  77;

WENATCHEE      MOSUNNY   73  40  30 W14       30.09S
6HR MIN TEMP:  64; 6HR MAX TEMP:  73;

ELLENSBURG     MOSUNNY   72  45  37 NW17      30.12S
6HR MIN TEMP:  61; 6HR MAX TEMP:  72;

YAKIMA         MOSUNNY   78  44  29 NW8       30.10S
6HR MIN TEMP:  61; 6HR MAX TEMP:  78;

SUNNYSIDE ARPT   N/A     72  51  46 W9        30.09S
6HR MIN TEMP:  48; 6HR MAX TEMP:  72;

YAKIMA TC      FAIR      74  40  28 SW6       30.09S
6HR MIN TEMP:  60; 6HR MAX TEMP:  75;

$$

WAZ028-034-035-191900-
COLUMBIA BASIN

CITY           SKY/WX    TMP DP  RH WIND       PRES   REMARKS
EPHRATA        SUNNY     78  37  22 NE9       30.07F
6HR MIN TEMP:  64; 6HR MAX TEMP:  78;

MOSES LAKE     SUNNY     77  40  26 N9G16     30.08S
6HR MIN TEMP:  54; 6HR MAX TEMP:  79;

PASCO          SUNNY     79  48  33 NW7       30.08F
6HR MIN TEMP:  55; 6HR MAX TEMP:  79;

RICHLAND ARPT  CLEAR     80  47  31 CALM      30.08S
6HR MIN TEMP:  57; 6HR MAX TEMP:  80;

HERMISTON, OR  SUNNY     76  51  41 N6        30.09S
6HR MIN TEMP:  63; 6HR MAX TEMP:  76;

$$

WAZ036>038-191900-
NORTHEAST WASHINGTON

CITY           SKY/WX    TMP DP  RH WIND       PRES   REMARKS
SPOKANE GEIGER PTSUNNY   70  43  37 VRB5      30.08R
6HR MIN TEMP:  54; 6HR MAX TEMP:  70;

SPOKANE FELTS  MOSUNNY   72  45  37 SW9       30.07S
6HR MIN TEMP:  57; 6HR MAX TEMP:  72;

FAIRCHILD AFB  MOSUNNY   72  41  32 NW5       30.08R
6HR MIN TEMP:  50; 6HR MAX TEMP:  72;

COEURDALENE,ID MOSUNNY   69  45  41 W5        30.08R
6HR MIN TEMP:  51; 6HR MAX TEMP:  70;

DEER PARK      MOSUNNY   71  40  32 VRB5      30.06S
6HR MIN TEMP:  53; 6HR MAX TEMP:  72;

$$

WAZ029>033-191900-
SOUTHEAST WASHINGTON

CITY           SKY/WX    TMP DP  RH WIND       PRES   REMARKS
PULLMAN        MOSUNNY   70  46  42 SW15G22   30.12S
6HR MIN TEMP:  53; 6HR MAX TEMP:  70;

LEWISTON, ID   SUNNY     77  45  32 NW12      30.07S
6HR MIN TEMP:  60; 6HR MAX TEMP:  78;

WALLA WALLA    SUNNY     72  53  51 S10       30.11S
6HR MIN TEMP:  63; 6HR MAX TEMP:  72;

PENDLETON, OR  SUNNY     73  49  42 N6        30.11F
6HR MIN TEMP:  59; 6HR MAX TEMP:  73;

$$



USA.gov is the U.S. government's official web portal to all federal, state and local government web resources and services.